This is the latest recevied weather packets stored in our database for station/object N6GPM. If no packets are shown the sender has not sent any weather packets the latest 10 day(s).
| Time | Temp. | Humidity | Pressure | Rain* | Wind** | Luminosity | Snow |
|---|---|---|---|---|---|---|---|
| 1787800522 | 31.67° C | 30% | 1016.8 hPa | 0 mm | - | 0 W/m² | - |
| 1787800217 | 32.22° C | 30% | 1016.9 hPa | 0 mm | - | 0 W/m² | - |
| 1787799916 | 32.22° C | 30% | 1016.8 hPa | 0 mm | - | 0 W/m² | - |
| 1787799615 | 32.78° C | 30% | 1016.6 hPa | 0 mm | - | 0 W/m² | - |
| 1787799308 | 32.78° C | 29% | 1016.5 hPa | 0 mm | - | 0 W/m² | - |
| 1787799006 | 33.33° C | 28% | 1016.3 hPa | 0 mm | - | 0 W/m² | - |
| 1787798706 | 33.33° C | 28% | 1016.4 hPa | 0 mm | - | 0 W/m² | - |
| 1787798401 | 33.33° C | 28% | 1016.2 hPa | 0 mm | - | 0 W/m² | - |
| 1787798096 | 33.33° C | 27% | 1016 hPa | 0 mm | - | 1 W/m² | - |
| 1787797794 | 33.33° C | 26% | 1016.3 hPa | 0 mm | - | 2 W/m² | - |
| 1787797489 | 33.89° C | 26% | 1016.2 hPa | 0 mm | - | 4 W/m² | - |
| 1787797185 | 33.89° C | 26% | 1016.1 hPa | 0 mm | - | 8 W/m² | - |
| 1787796880 | 34.44° C | 26% | 1016 hPa | 0 mm | - | 16 W/m² | - |
| 1787796580 | 34.44° C | 25% | 1016.2 hPa | 0 mm | - | 24 W/m² | - |
| 1787796276 | 34.44° C | 25% | 1016 hPa | 0 mm | - | 32 W/m² | - |
| 1787795973 | 35° C | 26% | 1016.1 hPa | 0 mm | - | 41 W/m² | - |
| 1787795668 | 35° C | 25% | 1016.1 hPa | 0 mm | - | 51 W/m² | - |
| 1787795364 | 35° C | 25% | 1016.1 hPa | 0 mm | - | 63 W/m² | - |
| 1787795063 | 35° C | 25% | 1015.9 hPa | 0 mm | - | 80 W/m² | - |
| 1787794757 | 35.56° C | 25% | 1015.7 hPa | 0 mm | - | 93 W/m² | - |
| 1787794453 | 35.56° C | 25% | 1015.7 hPa | 0 mm | - | 105 W/m² | - |
| 1787794148 | 36.11° C | 25% | 1015.9 hPa | 0 mm | - | 120 W/m² | - |
| 1787793844 | 36.11° C | 25% | 1015.7 hPa | 0 mm | - | 130 W/m² | - |
| 1787793540 | 35.56° C | 25% | 1015.7 hPa | 0 mm | - | 135 W/m² | - |
| 1787793240 | 36.11° C | 24% | 1015.6 hPa | 0 mm | - | 153 W/m² | - |
* Rain latest hour (hover to see other rain measurements)
** Current wind speed in m/s (hover to see current wind gust speed)